Location: ??????
(56.0120°N, 39.1740°E)
Time: 09:40:48
(UTC+00:00)

Cosmos 1697 Rocket - Pass Details

Date: 14 April 2026
Orbit: 832 x 842 km, 71.0° (Epoch: 18 May)

Event Time Altitude Azimuth Distance (km) Brightness Sun altitude
Rises 20:41:51 0° 322° (NW) 3,408 6.9 -23.8°
Reaches altitude 10° 20:44:29 10° 331° (NNW) 2,469 6.1 -23.8°
Maximum altitude 20:49:46 39° 39° (NE) 1,250 3.8 -24.0°
Enters shadow 20:53:27 18° 99° (E) 1,942 4.4 -24.0°
